星链-5737 (STARLINK-5737 )

导读

STARLINK-5737是美国SpaceX公司星链(Starlink)星座的一颗卫星,于北京时间2023年2月12日发射升空,属于星链项目扩容部署的一部分。星链星座旨在构建全球卫星互联网,该卫星入轨后为提供全球覆盖的高速低延迟网络服务、补充星座卫星组网能力发挥作用,进一步推进星链星座的全球服务布局。

Basic Information
目录编号:
55570
目录名称:
STARLINK-5737
国际标识:
2023-020B
轨道中心:
EARTH
卫星名称:
星链-5737
卫星全名:
星链-5737 (STARLINK-5737 )
卫星状态:
在轨 (已飞行1219 天)
发射日期:
2023-02-12 UTC
国别 :
美国 (US)
星等 :
--
Orbit Information
数据来源 国际轨道数据 AOE轨道数据
星历时间 2026-06-15T01:38:01+0800
12小时前
查看轨道信息
2026-06-13T06:00:00+0800
2天前
查看轨道信息
半长轴 6861.158km 6861.292km
偏心率 0.0001164 0.0002726
轨道倾角 42.999° 43.006°
近地点辐角 300.236° 330.804°
升交点赤经 177.227° 187.482°
平近点角 59.838° 99.358°
近地点 482.222km 481.284km
远地点 483.82km 485.026km
周期 94.266分钟 94.269分钟
每日圈数 15.275894 15.275449
Detailed Information
固有亮度:
5
最大亮度:
2.5
卫星平台:
Starlink v1.5
覆盖范围:
全球
运营商:
太空探索技术公司
运营商所在国:
美国
制造商(研发单位):
太空探索技术公司
制造商所在国:
美国
使用方式:
暂无
Satellite Introduction
星链(Starlink)计划是由太空探索技术公司(SpaceX)提出的一个巨型低轨卫星互联网星座项目,计划在2019年至2024年间在太空搭建由约1.2万颗卫星组成的“星链”网络,其中1584颗将部署在地球上空550千米处的近地轨道,并从2020年开始工作。该卫星仍在工作。
2D Orbit Map
3D Orbit Map
Orbit Altitude Analysis Chart
Orbit Inclination Analysis Chart
Orbit Comprehensive Analysis Chart
View Comprehensive Chart